Weather History for Lewiston, ID

Change the Weather History Date:

Saturday, December 14, 2013

  Actual Average Record
Temperature  
Mean Temperature 38 °F 33 °F  
Max Temperature 46 °F 39 °F 65 °F (2002)
Min Temperature 30 °F 28 °F -10 °F (1919)
Degree Days  
Heating Degree Days 27 32  
Month to date heating degree days 546 426  
Since 1 July heating degree days 1900 1666  
Cooling Degree Days 0 0  
Month to date cooling degree days 0 0  
Year to date cooling degree days 1178 807  
Moisture  
Dew Point 30 °F    
Average Humidity 73    
Maximum Humidity 92    
Minimum Humidity 53    
Precipitation  
Precipitation T in 0.03 in 0.41 in (1884)
Month to date precipitation 0.35 0.43  
Year to date precipitation 9.11 11.77  
Snow  
Snow 0.00 in 0.10 in 2.50 in (1963)
Month to date snowfall 0.7 1.4  
Since 1 July snowfall 0.7 3.2  
Snow Depth 0.00 in    
Sea Level Pressure  
Sea Level Pressure 30.42 in    
Wind  
Wind Speed 3 mph (SSE)    
Max Wind Speed 21 mph    
Max Gust Speed 25 mph    
Visibility 7 miles    
Events Fog , Rain    
T = Trace of Precipitation, MM = Missing Value Source: NWS Daily Summary

Daily Weather History Graph

Daily Weather History Graph

Search for Another Location

Airport:

Trip Planner

Search our weather history database for the weather conditions in past years. The results will help you decide how hot, cold, wet, or windy it might be!

Date:

Astronomy

Dec. 14, 2013 Rise Set
Actual Time 7:24 AM PST 4:01 PM PST
Civil Twilight 6:49 AM PST 4:36 PM PST
Nautical Twilight 6:11 AM PST 5:14 PM PST
Astronomical Twilight 5:34 AM PST 5:51 PM PST
Moon 2:32 PM PST (12/14) 4:43 AM PST (12/14)
Length of Visible Light 9h 47m
Length of Day
8h 37m
Waxing Gibbous, 94% of the Moon is Illuminated
Dec 14
Waxing Gibbous
Dec 17
Full
Dec 25
Last Quarter
Jan 1
New
Jan 7
First Quarter

Hourly Weather History & Observations

Time (PST) Temp. Windchill Dew Point Humidity Pressure Visibility Wind Dir Wind Speed Gust Speed Precip Events Conditions
12:53 AM 33.8 °F - 28.4 °F 81% 30.44 in 10.0 mi Calm Calm - N/A   Overcast
12:56 AM 33.1 °F - 28.9 °F 85% 30.48 in 10.0 mi Calm Calm - N/A   Overcast
1:06 AM 33.8 °F - 28.4 °F 81% 30.44 in 10.0 mi Calm Calm - N/A   Overcast
1:38 AM 33.8 °F - 28.4 °F 81% 30.45 in 9.0 mi Calm Calm - N/A   Overcast
1:56 AM 34.0 °F - 30.0 °F 85% 30.50 in 8.0 mi Calm Calm - N/A   Overcast
2:56 AM 32.0 °F - 28.9 °F 88% 30.48 in 9.0 mi Calm Calm - N/A   Clear
3:17 AM 33.8 °F - 28.4 °F 81% 30.45 in 7.0 mi Calm Calm - N/A   Partly Cloudy
3:29 AM 33.8 °F - 30.2 °F 87% 30.44 in 2.5 mi Calm Calm - N/A   Mostly Cloudy
3:39 AM 32.0 °F - 30.2 °F 93% 30.43 in 1.2 mi Calm Calm - N/A   Mostly Cloudy
3:47 AM 33.8 °F - 30.2 °F 87% 30.43 in 0.5 mi Calm Calm - N/A Fog Fog
3:56 AM 33.1 °F - 30.9 °F 92% 30.48 in 0.5 mi Calm Calm - N/A Fog Fog
4:03 AM 30.2 °F 26.7 °F 28.4 °F 93% 30.43 in 1.0 mi SSE 3.5 mph - N/A   Mist
4:05 AM 30.2 °F - 28.4 °F 93% 30.43 in 2.5 mi Calm Calm - N/A   Mostly Cloudy
4:09 AM 30.2 °F 26.7 °F 28.4 °F 93% 30.42 in 6.0 mi SE 3.5 mph - N/A   Scattered Clouds
4:56 AM 33.1 °F - 30.0 °F 89% 30.45 in 9.0 mi Calm Calm - N/A   Partly Cloudy
5:56 AM 37.0 °F 31.0 °F 32.0 °F 82% 30.45 in 10.0 mi ENE 8.1 mph - N/A   Overcast
6:13 AM 32.0 °F 26.4 °F 28.4 °F 87% 30.43 in 1.8 mi WSW 5.8 mph - N/A   Overcast
6:23 AM 33.8 °F 28.6 °F 30.2 °F 87% 30.43 in 3.0 mi SSW 5.8 mph - N/A   Overcast
6:43 AM 33.8 °F 29.6 °F 30.2 °F 87% 30.44 in 5.0 mi South 4.6 mph - N/A   Overcast
6:56 AM 34.0 °F 31.0 °F 30.9 °F 89% 30.48 in 6.0 mi SSW 3.5 mph - N/A   Overcast
7:56 AM 35.1 °F 30.1 °F 30.9 °F 85% 30.46 in 5.0 mi ENE 5.8 mph - 0.00 in Rain Light Rain
8:56 AM 37.9 °F 33.5 °F 33.1 °F 83% 30.48 in 10.0 mi ENE 5.8 mph - 0.00 in   Overcast
9:56 AM 39.0 °F 34.8 °F 34.0 °F 82% 30.45 in 7.0 mi NE 5.8 mph - N/A   Overcast
10:56 AM 44.1 °F 40.8 °F 32.0 °F 63% 30.41 in 10.0 mi Variable 5.8 mph - N/A   Mostly Cloudy
11:56 AM 44.1 °F 42.5 °F 32.0 °F 63% 30.40 in 10.0 mi SSE 3.5 mph - N/A   Partly Cloudy
12:56 PM 45.0 °F - 32.0 °F 60% 30.39 in 10.0 mi Calm Calm - N/A   Overcast
1:56 PM 42.1 °F - 34.0 °F 73% 30.40 in 10.0 mi Calm Calm - N/A   Overcast
2:56 PM 39.9 °F - 33.1 °F 77% 30.40 in 10.0 mi Calm Calm - N/A   Clear
3:56 PM 43.0 °F - 32.0 °F 65% 30.39 in 10.0 mi Calm Calm - N/A   Clear
4:56 PM 44.1 °F 42.5 °F 30.0 °F 58% 30.36 in 10.0 mi Variable 3.5 mph - N/A   Clear
5:56 PM 46.0 °F 41.4 °F 30.0 °F 54% 30.35 in 10.0 mi SW 9.2 mph - N/A   Partly Cloudy
6:56 PM 44.1 °F 41.5 °F 30.9 °F 60% 30.36 in 10.0 mi Variable 4.6 mph - N/A   Clear
7:56 PM 45.0 °F 42.6 °F 30.0 °F 56% 30.36 in 10.0 mi South 4.6 mph - N/A   Partly Cloudy
8:56 PM 43.0 °F 41.3 °F 30.0 °F 60% 30.35 in 10.0 mi WNW 3.5 mph - N/A   Overcast
9:56 PM 45.0 °F - 28.0 °F 52% 30.35 in 10.0 mi Calm Calm - N/A   Overcast
10:56 PM 43.0 °F - 28.9 °F 58% 30.35 in 10.0 mi Calm Calm - N/A   Overcast
11:56 PM 46.0 °F 39.0 °F 27.0 °F 47% 30.33 in 10.0 mi SSW 17.3 mph 25.3 mph N/A   Overcast